SCP
0 0 0 0 0 0 0 0 0 0 1 1 1 1 1 1 1 0 0 1 1 1 1 1 1 1 1 1 1 1 1 0 0 0 0 0 0 0 0 0 0 0 0
0 0 0 0 0 0 0 0 0 0 0 1 1 1 1 1 1 1 1 1 1 1 1 1 1 1 1 1 1 1 1 1 1 1 1 0 0 0 0 0 0 0 0
0 0 0 0 0 0 0 0 0 0 0 0 0 0 0 1 1 1 1 1 1 1 1 1 1 1 1 1 1 1 1 1 1 1 1 1 0 0 0 0 0 0 0
0 0 0 0 0 0 0 0 0 0 0 0 0 0 0 0 0 1 1 1 1 1 1 1 1 1 1 1 1 1 1 1 1 1 1 1 1 1 1 0 0 0 0
0 0 0 0 0 0 0 0 0 0 0 0 0 0 0 0 0 0 0 1 1 1 1 1 1 1 1 1 1 1 1 1 1 1 1 1 1 1 1 1 0 0 0
0 0 0 0 0 0 0 0 0 0 0 0 0 0 0 0 0 0 0 0 0 1 1 1 1 1 1 1 1 1 1 1 1 1 1 1 1 1 1 1 1 1 0
0 0 0 0 0 0 0 0 0 0 0 0 0 0 0 0 0 0 0 0 0 0 0 1 1 1 1 1 1 1 1 1 1 1 1 1 1 1 1 1 1 1 1
0 0 0 0 0 0 0 0 0 0 0 0 0 0 0 0 0 0 0 0 0 0 0 0 1 1 1 1 1 1 1 1 1 1 1 1 1 1 1 1 1 1 1
0 0 0 0 0 0 0 0 0 0 0 0 0 0 0 0 0 0 0 0 0 0 0 0 0 1 1 1 1 1 1 1 1 1 1 1 2 2 2 1 1 1 1
0 0 0 0 0 0 0 0 0 0 0 0 0 0 0 0 0 0 0 0 0 0 0 0 0 0 1 1 1 1 1 1 1 1 1 2 2 2 2 2 1 1 1
0 0 0 0 0 0 0 0 0 0 0 0 0 0 0 0 0 0 0 0 0 0 0 0 0 0 0 1 1 1 1 1 1 1 1 1 2 2 2 2 1 1 1
0 0 0 0 0 0 0 0 0 0 0 0 0 0 0 0 0 0 0 0 0 0 0 0 0 0 0 0 0 1 1 1 1 1 1 1 1 1 1 2 2 1 1
0 0 0 0 0 0 0 0 0 0 0 0 0 0 0 0 0 0 0 0 0 0 0 0 0 0 0 0 0 0 0 0 0 0 0 1 1 1 1 1 1 1 1
0 0 0 0 0 0 0 0 0 0 0 0 0 0 0 0 0 0 0 0 0 0 0 0 0 0 0 0 0 0 0 0 0 0 0 0 0 0 1 1 1 1 1
0 0 0 0 0 0 0 0 0 0 0 0 0 0 0 0 0 0 0 0 0 0 0 0 0 0 0 0 0 0 0 0 0 0 0 0 0 0 0 0 1 1 1
0 0 0 0 0 0 0 0 0 0 0 0 0 0 0 0 0 0 0 0 0 0 0 0 0 0 0 0 0 0 0 0 0 0 0 0 0 0 0 0 0 0 0
0 0 0 0 0 0 0 0 0 0 0 0 0 0 0 0 0 0 0 0 0 0 0 0 0 0 0 0 0 0 0 0 0 0 0 0 0 0 0 0 0 0 0
0 0 0 0 0 0 0 0 0 0 0 0 0 0 0 0 0 0 0 0 0 0 0 0 0 0 0 0 0 0 0 0 0 0 0 0 0 0 0 0 0 0 0
0 0 0 0 0 0 0 0 0 0 0 0 0 0 0 0 0 0 0 0 0 0 0 0 0 0 0 0 0 0 0 0 0 0 0 0 0 0 0 0 0 0 0
0 0 0 0 0 0 0 0 0 0 0 0 0 0 0 0 0 0 0 0 0 0 0 0 0 0 0 0 0 0 0 0 0 0 0 0 0 0 0 0 0 0 0
0 0 0 0 0 0 0 0 0 0 0 0 0 0 0 0 0 0 0 0 0 0 0 0 0 0 0 0 0 0 0 0 0 0 0 0 0 0 0 0 0 0 0
0 0 0 0 0 0 0 0 0 0 0 0 0 0 0 0 0 0 0 0 0 0 0 0 0 0 0 0 0 0 0 0 0 0 0 0 0 0 0 0 0 0 0
0 0 0 0 0 0 0 0 0 0 0 0 0 0 0 0 0 0 0 0 0 0 0 0 0 0 0 0 0 0 0 0 0 0 0 0 0 0 0 0 0 0 0
0 0 0 0 0 0 0 0 0 0 0 0 0 0 0 0 0 0 0 0 0 0 0 0 0 0 0 0 0 0 0 0 0 0 0 0 0 0 0 0 0 0 0
0 0 0 0 0 0 0 0 0 0 0 0 0 0 0 0 0 0 0 0 0 0 0 0 0 0 0 0 0 0 0 0 0 0 0 0 0 0 0 0 0 0 0
0 0 0 0 0 0 0 0 0 0 0 0 0 0 0 0 0 0 0 0 0 0 0 0 0 0 0 0 0 0 0 0 0 0 0 0 0 0 0 0 0 0 0
Wind_Speed
2 2 2 2 2 2 2 1 1 1 1 1 0 0 0 1 1 2 2 4 6 9 11 12 13 13 13 13 14 14 14 13 12 11 11 11 11 11 11 10 10 9 8
2 2 2 2 2 2 2 2 2 2 1 1 1 1 1 0 1 1 2 3 4 7 9 10 12 13 13 14 14 14 14 14 13 12 12 11 11 11 11 11 10 10 9
3 3 3 2 2 2 3 3 3 2 2 2 2 2 1 1 1 1 1 1 2 4 7 9 11 12 13 14 14 15 15 14 13 13 13 12 12 11 11 10 10 10 9
3 3 3 3 2 2 3 3 3 3 3 2 1 2 1 1 1 2 2 2 2 2 4 8 9 10 12 13 14 15 15 14 14 14 14 13 13 12 12 11 11 10 10
3 3 3 3 3 3 3 3 3 2 2 2 1 1 2 2 2 2 2 2 2 3 2 4 8 9 12 13 13 13 14 15 15 16 16 16 15 14 13 13 12 12 11
3 3 3 3 3 3 3 3 3 3 2 2 2 2 2 3 2 3 3 2 1 2 3 3 3 5 10 11 11 13 14 15 15 16 16 17 17 15 15 14 14 13 13
3 3 3 3 3 3 3 3 2 4 4 2 2 3 3 3 4 4 4 3 4 2 1 2 2 2 3 8 10 12 14 15 15 15 16 16 17 16 16 16 15 15 14
2 2 3 3 3 3 4 3 2 2 3 3 2 2 2 3 4 4 4 5 5 4 4 2 1 1 2 2 4 9 12 14 15 15 16 16 17 17 17 17 17 16 16
2 2 3 3 2 2 2 2 2 3 2 2 3 2 2 1 2 3 3 4 5 5 4 4 4 3 1 1 2 4 7 9 12 14 14 15 16 16 17 18 18 18 17
2 2 3 3 2 2 2 2 2 2 2 1 2 2 2 1 1 1 3 3 4 5 5 4 5 4 3 1 1 3 5 5 6 9 12 13 14 15 16 18 19 20 19
2 3 3 3 3 2 2 2 2 2 2 2 1 1 2 2 2 1 1 4 3 3 4 4 3 4 4 4 2 3 4 4 4 4 6 8 11 14 16 17 19 20 20
1 3 4 3 3 3 3 2 2 2 2 2 1 1 1 1 1 1 0 1 2 3 3 3 3 3 3 4 5 7 5 4 3 3 4 5 7 9 12 15 18 20 21
2 4 4 4 3 3 3 3 2 2 2 2 2 1 1 1 1 2 1 1 2 2 3 2 2 2 3 3 4 7 6 5 4 4 4 5 6 7 8 10 13 16 19
4 4 5 5 5 4 4 3 2 3 2 3 3 3 2 2 2 2 2 2 1 2 2 3 2 2 2 3 4 5 4 6 6 6 6 6 6 7 8 9 10 11 13
3 5 5 5 5 5 4 4 3 4 3 3 3 3 3 2 3 3 3 3 2 2 2 3 2 2 2 3 4 3 4 6 7 7 7 7 8 8 9 9 10 10 11
4 5 5 5 5 5 5 5 4 4 4 4 3 4 4 3 3 3 4 4 4 4 4 3 3 3 4 4 5 4 4 7 7 7 7 7 8 9 9 10 11 11 11
6 6 6 6 6 6 5 5 6 5 6 5 5 5 6 5 4 4 4 4 5 4 6 5 3 3 4 5 5 4 4 4 4 7 8 8 9 9 10 10 11 11 11
6 6 6 6 6 7 6 7 7 7 7 7 7 6 7 5 6 5 4 5 5 6 6 7 4 3 5 4 5 5 4 4 4 7 9 9 9 9 9 10 11 11 11
7 7 7 7 8 7 7 8 8 7 8 8 7 7 8 6 7 6 6 6 5 5 6 6 5 4 4 3 4 4 4 4 4 5 7 7 7 8 8 9 10 11 12
8 8 8 9 8 8 8 8 8 8 8 8 8 8 8 8 9 8 7 7 6 6 6 6 6 5 5 4 3 4 4 3 4 4 5 5 6 7 7 8 9 10 11
10 9 8 8 8 7 8 9 9 9 9 9 8 9 9 11 12 10 7 7 7 6 6 6 6 5 5 4 5 3 4 4 4 4 4 3 3 4 5 7 8 10 11
9 8 9 9 9 9 11 14 11 9 9 9 9 9 9 11 13 14 15 13 11 9 9 7 7 8 9 7 5 4 4 3 4 2 3 4 3 6 6 6 8 11 12
8 9 10 10 11 12 14 15 15 10 10 10 10 9 8 8 10 9 11 13 13 15 15 11 11 11 9 8 6 6 6 6 6 4 3 5 4 7 7 7 11 13 13
7 9 10 10 11 12 15 16 16 12 10 11 11 11 11 10 10 10 9 10 10 11 12 12 11 12 11 9 8 7 6 6 6 5 5 6 5 6 7 7 11 14 14
8 8 7 10 11 13 15 17 15 9 10 12 12 12 12 12 13 13 11 11 11 11 11 15 15 14 14 13 9 5 5 5 6 5 5 5 5 5 6 7 8 10 11
7 7 8 9 11 12 13 16 16 8 10 10 10 11 15 16 15 15 12 11 13 12 9 8 9 11 12 12 13 11 9 8 7 6 5 6 4 4 5 4 4 4 5
Wind_Direction
71 55 46 40 36 44 62 66 67 68 64 44 40 206 272 191 207 213 243 252 224 209 207 203 200 199 197 195 192 189 188 189 185 183 182 180 180 181 179 178 173 170 168
77 67 56 47 38 41 63 78 78 80 66 51 26 27 45 22 254 256 257 276 244 212 206 207 205 204 205 204 201 198 196 195 192 189 189 188 186 188 188 186 183 180 176
82 83 73 55 37 46 70 75 70 64 62 52 33 20 35 15 275 270 271 271 273 239 219 215 211 209 212 213 209 206 203 201 196 193 194 193 192 191 193 192 190 187 183
91 85 76 58 45 61 73 79 65 65 52 44 27 5 7 352 326 290 267 255 252 256 245 233 224 219 221 222 221 217 210 206 202 199 198 198 198 196 196 196 196 193 191
88 87 76 60 58 65 61 74 61 67 53 24 1 19 6 3 344 332 313 279 258 249 244 251 243 232 229 230 229 228 220 213 209 207 205 204 203 202 200 200 200 199 197
92 86 76 61 61 69 61 65 71 56 49 6 9 25 13 13 24 27 8 349 302 267 247 245 248 245 239 233 230 232 230 223 217 214 212 210 209 206 204 204 203 203 203
102 91 85 67 62 72 69 76 84 59 33 5 44 19 2 17 39 34 24 31 25 3 316 261 252 247 251 240 232 231 232 231 224 220 217 215 213 210 208 208 207 206 206
138 116 106 94 83 84 69 60 75 80 33 22 69 77 25 3 3 16 20 33 28 29 34 29 350 271 259 252 242 238 234 234 232 226 220 218 216 214 212 211 210 209 209
166 130 127 117 104 98 92 75 78 98 87 32 37 110 124 173 322 339 6 20 19 29 25 22 24 359 306 259 269 266 251 240 237 234 227 222 220 216 214 214 214 213 212
184 164 152 144 132 120 115 99 87 90 105 69 33 40 72 135 113 348 338 356 7 23 16 19 20 15 11 358 314 295 283 265 252 243 235 227 224 221 219 217 218 218 216
216 192 175 166 158 151 145 123 110 103 102 114 90 73 72 61 66 105 334 337 346 351 357 3 9 16 17 16 1 343 321 300 282 269 253 238 230 228 224 223 224 224 222
234 213 189 182 178 174 174 167 152 139 136 128 127 121 128 123 119 119 158 312 319 316 330 343 5 7 9 9 5 0 356 347 324 294 279 266 251 242 236 232 231 231 229
215 215 195 189 191 195 192 179 176 181 175 170 176 181 180 186 167 154 161 229 294 307 318 317 332 348 2 359 349 350 349 342 334 319 297 280 268 262 255 249 242 238 235
213 207 197 199 203 198 196 189 195 205 196 199 202 194 197 204 189 183 177 170 258 303 299 292 307 303 336 336 324 334 327 324 319 308 295 282 273 267 263 259 255 248 241
216 208 202 203 207 206 204 194 209 217 206 214 219 215 216 216 204 206 197 186 185 243 279 275 282 294 312 309 311 315 309 308 308 299 291 280 272 267 263 260 256 252 245
212 203 207 210 212 213 210 204 217 221 216 224 218 220 228 227 216 209 208 207 204 210 243 253 253 276 294 299 304 305 296 301 301 298 291 283 275 269 265 260 255 250 246
207 209 211 211 215 219 214 211 223 221 224 234 228 224 235 228 225 219 209 208 209 206 238 259 249 260 270 280 296 298 291 288 289 289 289 285 277 270 266 261 255 250 246
211 213 211 213 220 223 217 215 227 226 225 235 236 230 239 233 229 227 218 220 220 214 227 257 261 255 254 265 274 286 289 289 286 287 287 284 279 274 270 263 256 252 248
215 215 212 218 224 225 222 222 224 229 229 233 235 233 239 232 235 231 225 228 231 228 223 242 259 250 256 261 273 275 277 280 284 285 286 281 279 280 276 268 259 253 250
214 216 217 221 224 226 226 227 226 230 234 236 235 234 236 230 233 233 230 231 232 235 232 239 254 256 256 255 250 262 276 268 282 289 281 276 276 282 280 276 267 258 251
218 217 220 225 226 226 228 225 226 230 233 239 240 237 236 235 234 231 230 229 226 232 236 241 251 254 251 243 241 237 260 277 276 260 270 269 274 282 284 277 272 264 258
218 216 221 225 228 230 228 223 219 228 230 235 241 241 240 245 246 243 239 233 222 226 235 239 247 248 253 247 242 234 243 259 275 240 243 271 269 278 277 270 263 263 262
219 222 226 225 231 234 229 228 224 222 229 233 236 239 243 241 235 241 246 247 242 236 229 233 245 248 252 243 232 236 230 233 246 248 239 272 265 272 272 270 263 262 261
223 229 232 229 232 238 229 228 227 226 232 235 234 233 237 243 237 231 241 247 249 246 238 236 241 247 247 245 232 238 243 246 253 251 224 259 266 267 273 270 264 261 260
231 230 233 233 235 243 231 226 221 224 233 239 237 233 232 240 238 226 233 246 254 255 246 239 238 242 244 240 227 224 226 231 254 253 207 230 259 269 270 267 264 260 258
245 248 247 242 241 247 240 228 218 221 232 241 240 236 231 232 235 222 225 234 246 252 248 249 243 245 246 245 228 222 227 234 249 257 219 211 242 253 273 254 258 268 270